Regional Weather Roundup
Issued by NWS Goodland, KS

Home | Current Version | Previous Version | Text Only | Print | Product List | Glossary On
Versions: 1 2 3 4 5 6 7 8 9 10 11 12 13 14 15 16 17 18 19 20 21 22 23 24 25 26 27 28 29 30 31 32 33 34 35 36 37 38 39 40 41 42 43 44 45 46 47 48 49 50
000
ASUS43 KGLD 070608
RWRGLD

GOODLAND FORECAST AREA HOURLY WEATHER ROUNDUP
NATIONAL WEATHER SERVICE GOODLAND KS
1100 PM MST SAT FEB 06 2016

...OFFICIAL OBSERVATIONS...

CITY           SKY/WX    TMP DP  RH WIND       PRES   REMARKS
GOODLAND KS    CLOUDY    33  24  69 N9        30.11R
HILL CITY KS   CLOUDY    37  27  67 W12       30.06R
IMPERIAL NEB   CLOUDY    31  23  72 NW9       30.11R
MCCOOK NEB     CLOUDY    37  26  64 W9        30.09R
AKRON CO       CLOUDY    36  20  52 NW14      30.10R
BURLINGTON CO  CLOUDY    33  22  63 W8        30.09R
LIMON CO       CLOUDY    32  19  58 NW9       30.10F
$$

...UNOFFICIAL OBSERVATIONS...

CITY           SKY/WX    TMP DP  RH WIND       PRES   REMARKS
COLBY KS       CLEAR     34  28  80 NW10      30.12R
GOVE KS          N/A     33  32  96 MISG        N/A
LENORA KS        N/A     36  32  85 MISG        N/A
NORTON KS      CLEAR     37  25  60 W21G28    30.06R
SHARON SPRINGS   N/A     34  26  74 W10         N/A
TRENTON NEB      N/A     38  32  79 MISG        N/A
KIT CARSON CO    N/A     25  20  80 MISG        N/A
YUMA CO          N/A     34  24  66 N10G17      N/A
$$



USA.gov is the U.S. government's official web portal to all federal, state and local government web resources and services.